Wind_Speed
5 5 7 7 4 2 8 10 7 10 12 11 12 14 12 12 13 14 16 18 21 22 24 29 30 31 30 26 25 25 22 22 21 18 16 12 10 12 12 12 11 12 10
7 8 9 11 9 6 8 6 2 1 3 5 9 8 10 10 10 12 12 13 14 17 18 19 20 22 24 26 24 19 18 15 14 11 8 8 6 5 6 7 6 7 5
15 16 16 13 13 11 11 7 1 8 8 7 4 6 5 8 8 8 10 11 12 13 12 14 13 12 13 15 19 18 17 10 4 5 6 5 4 5 5 4 6 6 6
22 20 19 16 16 16 10 13 14 10 14 9 9 10 6 6 4 3 2 4 8 9 9 8 8 8 7 7 7 9 8 8 4 5 4 6 6 7 7 8 9 12 13
26 27 23 21 22 23 24 21 21 17 9 16 16 13 12 9 8 6 4 3 5 10 8 4 6 3 4 6 9 7 6 10 11 9 11 12 13 9 10 11 12 11 15
31 29 29 28 27 30 24 27 21 22 18 18 19 22 20 17 12 12 10 11 10 14 13 9 10 9 5 9 11 11 11 14 14 15 14 11 12 13 13 12 15 14 17
34 31 33 34 30 31 32 33 24 26 32 32 25 29 26 28 22 15 15 16 19 18 20 15 15 16 15 18 13 15 15 14 15 17 17 18 18 14 17 20 20 24 23
34 36 41 38 39 41 40 37 38 32 36 38 38 35 34 32 32 29 28 26 25 29 29 30 27 29 27 29 25 25 21 19 21 22 24 26 24 27 30 32 35 35 34
40 44 45 47 42 51 46 45 42 40 35 43 44 41 39 40 37 36 38 36 35 33 35 37 37 36 34 34 35 35 33 27 29 30 26 26 26 27 33 37 35 33 36
41 48 48 57 51 52 46 43 48 47 44 42 45 49 52 45 50 51 42 38 38 44 42 40 46 46 43 41 44 44 44 42 41 37 36 34 31 32 36 36 37 41 41
49 51 56 58 57 57 55 58 53 54 55 51 48 51 55 60 54 54 48 44 48 52 58 54 52 52 50 54 53 51 52 52 49 50 46 44 42 43 45 43 46 47 46
65 64 67 68 65 62 61 66 65 63 59 59 59 59 61 59 66 64 58 56 51 62 58 55 61 62 65 64 66 61 59 60 58 56 58 55 56 53 54 56 53 55 58
68 65 71 69 68 71 79 74 74 71 68 66 65 65 66 70 73 76 75 73 74 63 71 72 73 70 69 72 71 76 72 68 66 64 61 62 64 65 64 65 68 66 64
73 78 74 77 79 76 80 84 81 80 76 74 67 69 70 75 76 77 77 76 76 76 79 79 80 73 76 81 78 69 72 72 71 73 74 71 77 73 75 74 74 71 74
75 79 83 84 83 82 82 88 95 94 89 87 86 83 79 78 87 82 86 90 86 88 88 89 88 88 85 81 79 76 75 76 77 75 77 77 82 78 76 80 79 80 80
83 86 83 83 85 90 92 92 91 93 92 90 89 90 85 85 85 91 87 89 90 93 91 91 97 100 94 91 88 88 77 78 76 75 76 80 81 86 87 87 85 87 86
93 96 90 93 95 92 86 92 90 91 91 92 94 93 89 93 93 93 93 94 94 96 94 95 95 97 98 98 92 97 95 91 91 83 87 86 88 93 90 95 95 94 89
98 96 103 97 94 94 101 102 99 99 97 99 95 95 93 92 94 94 96 97 100 100 104 100 99 100 102 101 104 102 104 106 96 93 98 99 100 96 107 119 115 115 116
104 104 105 107 105 104 103 103 104 108 112 107 107 99 98 100 105 109 110 110 112 112 110 107 107 108 109 113 111 109 110 112 112 107 104 107 106 105 118 137 132 129 126
123 116 118 116 116 116 118 114 111 114 116 120 120 119 118 114 112 114 112 116 119 115 112 111 116 120 118 117 117 117 117 119 121 111 124 124 126 132 144 146 144 131 125
131 134 132 136 136 135 133 130 134 132 125 128 127 122 122 122 120 124 132 129 133 130 128 130 131 128 128 128 129 126 128 135 140 145 148 153 147 142 137 133 130 128 124
131 135 138 143 148 149 147 145 144 144 143 144 143 143 143 146 148 149 149 149 147 142 141 140 141 141 143 147 150 152 150 149 151 148 145 142 138 137 135 131 131 131 131
128 134 138 142 146 150 153 154 155 155 155 155 156 158 161 161 159 161 160 161 159 160 161 159 155 156 157 157 159 159 157 154 149 146 147 146 146 144 145 144 143 143 142
118 125 131 137 142 147 150 154 158 162 165 167 169 172 173 174 172 171 171 170 169 167 167 164 162 159 161 161 163 161 160 159 157 153 150 147 146 144 141 140 141 140 139
91 99 106 116 125 131 137 144 150 155 156 157 158 159 162 162 162 161 161 160 160 161 163 165 164 163 162 162 158 156 154 152 148 147 145 142 139 136 134 131 130 131 130
80 85 90 94 98 103 108 113 116 119 122 125 126 127 128 130 131 130 130 130 130 131 131 131 133 136 135 132 128 125 123 122 121 121 119 117 116 115 114 113 112 112 112
Wind_Direction
295 298 306 306 350 72 27 27 44 70 84 88 89 74 70 74 69 68 67 66 64 60 57 57 58 61 67 69 69 73 86 103 111 102 100 89 88 81 77 76 68 60 76
252 293 297 292 268 255 299 350 79 110 123 84 95 89 82 82 64 61 65 61 56 53 59 56 52 52 53 63 73 70 76 103 104 74 67 45 48 59 56 65 45 44 37
253 279 292 275 263 266 253 252 291 276 237 227 187 156 126 95 81 68 60 67 64 54 59 58 43 55 53 47 56 59 66 72 70 22 30 44 16 355 340 320 330 336 328
254 262 278 261 245 240 257 261 261 276 259 227 217 226 219 216 174 96 112 46 27 54 46 54 50 25 12 33 48 53 48 63 74 79 44 6 353 339 331 328 322 316 315
258 267 259 250 251 240 243 243 248 239 257 257 239 226 214 215 199 213 264 327 347 354 331 322 2 33 34 348 338 322 335 343 347 354 352 342 334 315 298 299 306 317 335
262 261 260 249 258 248 237 243 239 245 223 230 248 245 242 218 214 237 258 254 296 300 300 314 296 290 319 319 313 310 312 321 324 328 318 318 329 319 315 316 318 322 331
265 253 257 259 249 252 261 268 268 257 238 229 228 242 246 246 237 228 258 263 277 286 284 297 276 291 258 305 311 304 304 302 307 306 304 300 295 292 293 305 308 302 307
248 248 255 254 259 256 256 261 265 269 253 239 238 237 243 250 253 273 275 273 275 277 275 285 291 296 300 299 299 304 292 292 299 302 298 289 285 284 289 293 297 298 296
243 251 252 266 253 259 251 255 260 261 262 246 247 246 241 248 248 265 269 273 272 265 266 274 277 282 285 287 286 290 293 287 288 288 291 289 290 294 296 289 290 296 296
239 241 256 256 249 251 251 250 256 253 256 247 250 250 243 244 256 257 264 264 254 259 262 267 275 277 277 286 287 282 285 289 291 288 292 286 286 288 285 287 290 296 299
233 231 239 239 248 248 254 254 254 252 252 253 250 249 244 246 248 257 257 257 261 264 260 263 267 271 274 287 294 283 280 282 281 284 286 284 285 288 287 286 286 282 284
230 236 235 237 245 252 249 250 251 254 246 248 247 249 243 248 248 250 251 264 255 261 265 264 271 275 273 282 288 289 281 278 279 281 281 280 284 283 281 280 287 280 277
225 233 235 240 243 246 248 249 249 252 244 241 242 247 251 248 252 256 259 260 265 254 255 260 266 272 271 278 282 285 282 281 277 278 283 282 280 280 283 283 281 284 280
234 233 236 244 247 247 246 247 250 256 250 248 244 243 247 251 253 256 258 261 260 255 260 262 266 266 270 274 281 279 282 284 285 287 283 287 286 281 282 281 282 282 282
233 240 244 243 244 245 247 254 258 261 260 254 255 253 264 261 252 249 255 255 255 258 260 262 264 267 271 274 272 276 280 282 283 283 282 287 286 282 282 287 281 279 286
231 235 236 239 244 246 253 253 257 258 258 255 259 262 258 258 256 257 261 260 259 264 262 269 268 267 267 269 271 273 271 275 276 280 279 282 281 287 282 290 280 277 287
235 234 239 244 245 248 248 250 250 251 253 255 259 260 260 258 259 260 256 258 257 263 264 265 268 267 269 271 274 277 276 275 275 273 273 275 278 281 284 281 283 278 287
232 233 237 238 243 244 243 246 247 250 252 250 259 257 259 258 259 259 259 261 260 260 268 264 266 263 266 268 270 272 272 276 270 269 271 273 275 273 284 290 287 286 285
236 239 237 237 238 240 245 247 248 250 252 249 251 254 252 252 259 262 264 265 265 263 266 266 262 266 267 270 271 270 271 273 272 267 272 274 272 271 279 286 287 284 284
243 245 243 241 240 243 243 244 248 246 247 248 249 249 253 257 257 254 257 260 263 262 262 261 263 268 269 267 268 269 271 274 271 270 277 278 276 275 279 283 283 283 283
246 246 248 247 247 248 246 245 246 247 245 249 251 250 254 256 258 259 262 263 266 264 266 268 268 268 268 270 274 274 273 275 276 276 277 277 281 282 283 281 281 282 280
249 250 250 250 250 251 250 249 250 249 252 253 255 255 256 260 262 265 267 268 268 267 267 265 266 268 272 272 276 279 280 280 279 280 280 281 281 282 282 280 280 281 281
253 252 252 253 253 253 252 253 251 251 253 256 256 260 264 265 266 266 267 269 270 270 272 273 273 271 272 274 274 277 279 280 280 280 281 282 282 281 281 282 282 282 282
255 256 257 257 257 257 257 257 258 259 260 260 261 262 263 264 265 266 267 267 268 269 271 272 273 273 273 273 275 277 277 278 278 279 279 280 280 280 280 280 281 282 282
260 260 260 260 260 261 261 261 261 262 263 264 265 266 267 267 267 267 267 267 267 267 268 269 271 271 271 274 275 276 275 275 274 275 276 278 279 279 279 279 280 280 280
266 266 266 266 265 264 264 264 264 265 266 266 267 267 267 267 268 268 268 268 268 268 268 269 269 270 271 271 272 273 273 273 273 274 275 276 277 278 278 279 279 279 280
Height
11004 11005 11006 11008 11008 11008 11007 11008 11010 11010 11009 11009 11009 11007 11005 11004 11003 11003 11003 11004 11002 11000 10999 10997 10995 10994 10994 10991 10990 10989 10989 10989 10990 10991 10990 10992 10993 10994 10995 10996 10997 10996 10996
11002 11003 11005 11006 11007 11008 11008 11008 11008 11010 11010 11010 11010 11009 11008 11007 11007 11006 11006 11005 11004 11003 11002 11001 11000 10999 10998 10998 10997 10995 10994 10994 10994 10994 10994 10995 10996 10996 10997 10998 10998 10997 10996
10997 10999 11002 11003 11004 11005 11006 11006 11007 11008 11008 11008 11008 11008 11008 11009 11008 11008 11008 11006 11005 11004 11004 11004 11004 11004 11003 11002 11001 11000 11000 11000 11000 10998 10997 10997 10997 10998 10998 10998 10998 10997 10996
10991 10994 10996 10998 10999 11002 11002 11002 11004 11006 11006 11006 11006 11006 11005 11005 11006 11006 11006 11006 11006 11005 11004 11004 11003 11004 11005 11005 11004 11003 11003 11003 11002 11000 10998 10997 10998 10998 10998 10998 10998 10996 10994
10985 10987 10989 10990 10993 10994 10996 10997 10998 11001 11002 11003 11003 11003 11003 11002 11002 11003 11004 11005 11005 11005 11004 11004 11003 11003 11004 11004 11003 11002 11002 11002 11001 11000 10999 10999 10998 10998 10998 10997 10997 10995 10994
10978 10980 10982 10983 10985 10988 10989 10992 10992 10995 10995 10996 10999 10998 10999 10998 10998 10998 10999 11000 11002 11002 11002 11001 11002 11002 11001 11001 11000 11000 11001 11000 10998 10999 10999 10999 10999 10998 10997 10996 10995 10994 10995
10970 10971 10972 10974 10976 10979 10981 10983 10986 10988 10989 10989 10988 10992 10992 10993 10992 10992 10993 10996 10997 10999 10998 10999 10997 10996 10997 10999 10997 10997 10998 10997 10996 10996 10996 10996 10996 10996 10994 10993 10992 10990 10989
10962 10963 10963 10965 10967 10969 10972 10974 10976 10979 10980 10981 10981 10983 10985 10986 10986 10985 10986 10988 10990 10991 10992 10992 10992 10990 10993 10994 10994 10994 10994 10993 10992 10991 10991 10991 10990 10989 10989 10988 10987 10985 10982
10954 10954 10956 10957 10959 10958 10960 10964 10965 10968 10971 10971 10973 10974 10975 10977 10977 10977 10977 10978 10979 10982 10983 10983 10983 10985 10986 10986 10987 10987 10987 10985 10984 10984 10983 10981 10981 10980 10979 10978 10977 10975 10972
10941 10942 10945 10947 10946 10947 10949 10951 10953 10956 10958 10960 10962 10963 10964 10965 10966 10967 10968 10968 10969 10970 10971 10971 10972 10973 10974 10974 10976 10976 10975 10975 10974 10973 10973 10971 10970 10969 10967 10966 10965 10964 10963
10931 10929 10929 10929 10930 10933 10935 10939 10941 10943 10944 10947 10949 10950 10950 10952 10954 10953 10955 10955 10957 10957 10957 10958 10959 10958 10958 10960 10960 10961 10961 10961 10960 10961 10960 10960 10959 10957 10956 10955 10952 10950 10949
10913 10914 10911 10916 10914 10916 10918 10921 10924 10924 10927 10931 10932 10934 10936 10937 10938 10938 10940 10941 10944 10942 10941 10941 10942 10943 10942 10942 10944 10945 10943 10942 10942 10943 10944 10944 10943 10942 10940 10939 10937 10933 10931
10896 10897 10896 10899 10901 10900 10899 10901 10903 10905 10907 10910 10915 10919 10921 10922 10923 10924 10925 10926 10927 10928 10928 10925 10924 10925 10926 10924 10926 10927 10927 10925 10924 10923 10924 10925 10924 10925 10923 10920 10919 10917 10914
10880 10882 10885 10885 10883 10881 10880 10880 10883 10882 10889 10891 10895 10897 10901 10903 10906 10906 10907 10908 10908 10909 10909 10909 10908 10907 10906 10907 10905 10904 10904 10903 10902 10901 10900 10900 10902 10902 10903 10901 10899 10897 10894
10864 10866 10868 10867 10866 10864 10864 10863 10865 10863 10869 10871 10873 10875 10878 10883 10883 10884 10887 10887 10887 10888 10888 10888 10888 10888 10888 10887 10886 10885 10883 10882 10881 10880 10877 10876 10878 10877 10879 10880 10878 10874 10872
10844 10848 10850 10850 10850 10849 10848 10847 10844 10843 10845 10848 10852 10853 10855 10857 10860 10863 10864 10863 10863 10863 10864 10867 10867 10866 10867 10864 10862 10861 10860 10861 10860 10858 10860 10858 10855 10854 10851 10849 10848 10847 10844
10822 10824 10826 10829 10832 10831 10829 10827 10829 10827 10826 10826 10826 10828 10833 10834 10835 10838 10841 10841 10838 10840 10840 10841 10842 10843 10842 10840 10840 10839 10837 10835 10834 10833 10834 10834 10831 10830 10829 10824 10821 10819 10817
10795 10800 10804 10806 10809 10810 10811 10809 10809 10808 10805 10804 10806 10804 10803 10807 10810 10810 10813 10817 10818 10814 10814 10810 10816 10815 10816 10814 10815 10816 10813 10812 10808 10807 10807 10806 10805 10803 10803 10799 10799 10799 10794
10775 10777 10778 10779 10780 10782 10784 10782 10782 10783 10783 10779 10777 10777 10776 10779 10781 10781 10780 10784 10787 10788 10788 10787 10786 10787 10786 10786 10788 10786 10785 10784 10781 10778 10775 10777 10776 10774 10772 10769 10766 10760 10757
10746 10748 10752 10749 10749 10749 10750 10750 10749 10747 10747 10750 10750 10748 10747 10748 10751 10752 10753 10756 10756 10756 10756 10754 10754 10753 10755 10756 10755 10755 10756 10753 10752 10749 10749 10749 10747 10741 10739 10735 10730 10726 10719
10722 10722 10720 10717 10713 10712 10712 10710 10713 10714 10714 10716 10717 10717 10719 10720 10723 10725 10727 10726 10726 10727 10730 10730 10727 10725 10719 10719 10720 10718 10721 10723 10720 10714 10708 10703 10699 10697 10694 10691 10688 10686 10683
10685 10682 10681 10680 10679 10679 10679 10678 10679 10679 10679 10678 10681 10683 10685 10688 10691 10692 10691 10691 10691 10692 10694 10695 10694 10692 10690 10681 10679 10676 10675 10673 10671 10669 10664 10661 10658 10654 10650 10647 10646 10643 10640
10652 10651 10649 10647 10647 10647 10648 10647 10645 10642 10641 10642 10648 10652 10652 10652 10653 10651 10651 10652 10653 10652 10652 10653 10654 10653 10649 10646 10642 10638 10637 10633 10630 10626 10620 10618 10614 10614 10610 10607 10604 10600 10596
10622 10620 10618 10616 10614 10612 10613 10614 10612 10611 10611 10611 10610 10608 10609 10607 10611 10615 10616 10616 10613 10612 10609 10607 10605 10604 10603 10601 10600 10597 10595 10592 10589 10585 10583 10580 10574 10571 10569 10564 10561 10557 10554
10589 10587 10583 10579 10577 10576 10574 10573 10571 10570 10571 10571 10571 10568 10563 10560 10559 10560 10561 10563 10566 10568 10565 10562 10561 10558 10556 10554 10553 10552 10552 10551 10548 10545 10543 10540 10537 10534 10530 10528 10526 10520 10515
10562 10557 10552 10547 10542 10537 10535 10534 10533 10531 10529 10526 10524 10521 10518 10513 10510 10511 10512 10514 10516 10516 10516 10517 10517 10515 10514 10513 10512 10511 10510 10509 10508 10507 10505 10502 10499 10495 10493 10490 10487 10483 10479